Temperature
9 10 9 10 10 10 9 10 10 12 12 14 15 13 13 14 14 14 14 15 15 15 15 15 15 15 15 15 14 14 13 12 12 10 9 7 5 4 2 1 1 -0 -1 -1
8 9 8 8 9 10 10 10 10 11 12 13 13 13 12 12 12 12 14 14 14 14 14 14 14 14 14 14 14 13 13 12 11 10 8 6 5 3 2 1 0 -1 -1 -2
7 9 8 8 10 10 10 9 9 10 11 11 10 10 11 12 12 13 13 13 13 13 13 13 13 13 13 13 13 13 12 12 11 9 8 6 4 2 1 0 -0 -1 -1 -2
5 8 8 11 11 10 10 10 9 10 10 10 10 11 12 13 13 12 12 12 12 12 12 12 12 13 12 12 12 12 12 11 10 9 7 5 3 2 1 0 -0 -1 -1 -2
5 6 7 8 9 10 9 9 10 10 10 10 11 10 12 12 12 11 11 11 11 11 11 11 12 11 11 11 11 11 11 10 9 8 6 5 3 2 1 0 -0 -1 -1 -2
4 5 7 9 11 11 10 9 11 11 10 10 9 7 9 11 11 11 11 10 10 10 10 10 11 10 10 10 10 10 10 9 8 7 6 4 3 2 0 -0 -1 -1 -2 -2
4 4 7 8 9 10 10 10 12 11 11 10 8 8 10 10 10 10 9 9 9 9 9 10 9 9 9 9 9 9 8 8 7 6 5 4 2 1 -0 -1 -1 -2 -2 -2
3 4 6 8 8 9 10 11 11 11 10 10 9 9 9 9 9 9 8 9 8 8 8 9 9 8 8 8 8 7 7 7 6 5 4 2 1 0 -1 -1 -2 -2 -2 -3
5 8 9 10 10 11 11 10 10 10 10 9 8 8 8 8 8 8 8 8 7 7 7 8 8 7 7 7 7 6 6 6 6 4 3 1 -0 -1 -2 -2 -2 -3 -3 -3
5 6 7 10 10 11 11 10 10 9 8 8 7 7 7 7 7 7 7 6 6 6 6 7 7 6 6 6 5 5 6 5 5 3 2 0 -1 -2 -2 -2 -3 -3 -3 -3
6 7 7 9 9 9 9 9 8 8 7 7 6 6 6 5 6 5 6 6 5 5 5 5 5 6 5 5 4 4 5 4 3 2 0 -1 -2 -2 -2 -2 -2 -2 -2 -3
7 8 7 8 8 8 8 7 7 6 6 6 5 5 5 5 5 5 5 5 5 4 4 4 4 4 4 4 3 3 4 3 2 1 -1 -2 -3 -3 -4 -3 -3 -3 -3 -3
8 8 8 7 7 7 6 6 6 5 5 5 5 5 4 4 4 4 4 4 3 3 3 3 3 3 3 3 3 3 3 2 1 -0 -1 -3 -4 -4 -4 -4 -4 -4 -4 -4
7 7 6 6 6 5 5 5 5 5 5 5 4 4 4 4 4 4 3 3 2 2 2 2 2 2 2 2 2 2 2 2 1 -0 -2 -3 -4 -5 -5 -5 -5 -4 -4 -4
6 5 5 5 4 4 4 4 4 4 4 4 4 4 3 3 3 3 3 2 2 2 2 1 1 1 1 1 1 1 1 1 -0 -1 -3 -4 -5 -6 -6 -6 -5 -5 -4 -4
5 4 4 4 4 4 4 4 4 4 3 3 3 3 3 2 2 2 2 2 1 1 1 1 1 1 0 0 0 0 0 -0 -1 -2 -3 -5 -6 -7 -7 -7 -6 -5 -5 -4
3 3 4 4 3 3 3 3 3 3 2 2 2 2 2 2 2 2 1 1 0 0 1 1 0 0 -0 -0 -1 -1 -1 -1 -2 -3 -4 -5 -6 -7 -7 -7 -7 -6 -5 -4
4 4 3 3 3 3 3 3 2 2 2 2 1 1 1 1 1 0 0 0 0 1 1 0 -0 -0 -1 -1 -1 -1 -1 -1 -2 -3 -5 -6 -6 -7 -7 -7 -7 -6 -6 -5
3 3 3 3 2 2 2 2 2 2 1 1 1 0 0 0 0 -0 -0 -1 -0 -0 0 -0 -1 -1 -1 -1 -1 -1 -2 -2 -3 -4 -5 -6 -7 -7 -8 -7 -7 -7 -6 -5
3 3 2 2 2 2 1 1 1 1 1 1 0 -0 -0 -0 -0 -1 -1 -1 -0 -1 -1 -1 -1 -1 -1 -2 -2 -2 -2 -3 -3 -4 -5 -6 -7 -8 -8 -8 -7 -7 -6 -5
2 2 2 2 1 1 1 1 1 0 0 0 -0 -1 -1 -1 -1 -1 -2 -2 -0 -1 -1 -1 -2 -2 -2 -2 -2 -3 -3 -3 -4 -5 -6 -7 -7 -8 -8 -8 -7 -7 -6 -5
1 1 1 1 1 1 1 0 0 -0 -0 -1 -1 -1 -1 -1 -1 -2 -1 -1 -1 -1 -2 -2 -2 -2 -2 -2 -3 -3 -3 -4 -4 -5 -6 -7 -7 -8 -8 -7 -7 -7 -6 -5
0 0 0 0 0 -0 -0 -0 -0 -1 -1 -1 -1 -1 -2 -2 -2 -2 -3 -2 -2 -2 -2 -2 -2 -2 -2 -3 -3 -3 -4 -4 -5 -5 -6 -7 -7 -8 -8 -7 -7 -6 -6 -6
-0 -0 -0 -0 -1 -1 -1 -1 -1 -1 -1 -2 -1 -1 -2 -3 -2 -2 -2 -2 -2 -2 -2 -2 -2 -2 -2 -3 -3 -3 -4 -4 -5 -6 -6 -7 -7 -8 -8 -7 -7 -6 -6 -6
-1 -1 -1 -1 -1 -2 -2 -2 -2 -2 -2 -2 -2 -2 -2 -3 -3 -3 -3 -2 -2 -2 -2 -2 -2 -2 -2 -3 -3 -4 -4 -5 -5 -6 -7 -7 -7 -8 -7 -7 -7 -6 -6 -5
-1 -2 -2 -2 -2 -2 -2 -3 -3 -3 -3 -3 -3 -3 -3 -3 -3 -3 -3 -2 -2 -2 -2 -2 -2 -2 -2 -3 -3 -4 -4 -5 -6 -6 -7 -7 -7 -7 -7 -7 -6 -6 -6 -5
-2 -2 -2 -2 -2 -2 -3 -3 -3 -4 -4 -4 -4 -4 -3 -3 -3 -3 -3 -2 -2 -2 -2 -2 -2 -2 -3 -3 -4 -4 -5 -5 -6 -7 -7 -7 -7 -7 -7 -7 -6 -6 -6 -5
Wind_Speed
10 11 6 8 12 11 14 14 15 21 22 29 24 16 14 12 12 12 12 12 11 10 9 8 8 8 9 11 11 13 15 18 20 18 16 15 16 16 15 15 15 14 13 12
7 9 9 10 15 19 19 15 16 23 25 24 14 9 10 11 10 10 11 11 11 11 11 10 9 9 9 10 11 12 16 18 16 14 15 16 16 15 15 15 13 13 13 12
7 5 5 10 15 17 11 10 11 14 14 10 11 12 11 11 10 10 11 11 12 12 11 11 11 10 10 10 9 12 16 16 15 15 16 16 16 16 16 15 14 13 12 12
4 1 11 11 6 10 11 13 12 12 12 12 12 12 10 9 7 9 10 11 12 11 12 11 10 10 9 8 8 11 14 15 14 15 16 15 15 16 16 13 14 13 13 12
3 6 11 9 10 7 8 9 8 8 9 9 9 8 6 4 4 8 10 12 12 12 12 11 12 10 8 8 7 10 13 15 15 15 16 16 17 17 15 13 13 13 11 12
5 6 10 10 5 1 2 7 5 4 5 7 7 9 8 9 11 13 13 11 12 11 11 12 12 8 7 9 9 13 14 14 13 14 16 17 17 16 13 13 13 12 12 12
8 10 11 10 4 2 4 7 3 3 6 7 5 8 11 13 12 11 12 13 12 11 11 12 11 8 9 11 13 12 10 10 11 13 15 15 14 12 12 13 12 12 12 10
7 7 11 7 5 6 8 6 6 8 9 10 11 11 11 11 12 12 12 12 11 10 12 12 10 8 10 14 13 9 8 9 11 12 12 12 12 12 12 13 13 12 10 9
11 11 7 5 8 8 7 10 11 10 11 11 11 11 11 10 11 11 11 11 10 11 13 13 10 8 12 14 11 9 9 9 9 10 11 11 12 13 12 12 11 11 10 10
10 12 12 12 11 12 13 14 12 11 10 9 10 11 11 10 10 10 10 11 10 11 13 15 13 11 11 13 11 9 10 9 8 9 10 10 11 12 12 13 12 11 11 10
15 14 12 11 11 12 12 10 9 9 8 7 7 8 8 9 10 10 10 10 10 11 13 16 15 15 13 11 10 10 10 9 8 9 9 11 12 12 14 14 15 14 12 11
22 16 14 15 10 11 10 9 8 7 6 6 5 7 9 10 10 10 12 11 12 13 14 15 15 16 15 11 9 9 9 8 7 7 8 9 10 10 19 17 21 22 18 14
22 17 15 15 10 7 6 5 4 4 4 6 7 8 9 9 9 11 12 13 14 14 15 16 15 16 15 11 9 9 10 9 7 8 9 10 10 11 10 14 20 21 21 20
11 10 12 10 8 5 4 3 3 4 5 7 8 9 9 10 11 13 14 14 14 15 16 15 15 17 15 11 10 10 10 12 10 8 9 9 10 10 10 10 11 11 16 21
8 7 8 7 4 3 2 3 4 7 8 9 9 10 12 13 15 16 16 15 15 15 16 15 16 17 14 11 11 11 9 8 8 7 8 9 10 10 9 10 10 9 6 11
6 5 4 3 3 3 3 5 6 9 10 11 12 13 14 14 15 16 16 14 14 17 17 16 17 17 14 12 11 10 9 13 11 8 8 9 9 10 10 10 10 9 10 10
5 4 3 2 3 4 6 7 8 10 11 13 14 15 15 15 16 16 16 14 14 16 17 17 17 16 14 12 11 9 8 9 13 10 8 9 9 10 10 9 9 10 9 12
5 4 4 3 4 6 9 9 10 12 13 14 15 14 14 16 17 18 17 16 16 16 16 15 14 14 13 12 10 8 8 7 7 7 7 8 9 9 9 9 10 9 7 10
1 1 3 5 7 7 9 11 12 12 13 14 14 15 15 16 16 16 16 15 17 18 15 13 20 17 14 14 14 8 7 8 8 7 7 11 11 9 9 9 9 9 8 8
3 4 6 7 8 9 11 13 13 13 13 13 14 15 16 16 15 15 15 15 14 13 14 17 17 14 13 13 15 7 7 8 8 7 7 8 8 9 9 10 9 9 9 9
6 7 9 10 11 11 12 13 14 15 14 13 14 16 16 16 15 14 15 16 15 14 14 20 14 12 12 13 15 8 7 7 7 7 7 8 8 9 9 9 9 9 9 8
7 9 11 11 12 13 12 12 13 14 14 14 15 15 15 16 15 14 14 13 15 19 15 12 12 16 18 18 9 7 7 7 7 6 7 7 8 8 9 9 9 8 8 8
9 10 12 13 14 14 13 13 13 13 14 15 16 16 16 15 13 14 16 12 11 20 17 13 18 25 25 14 8 7 7 7 6 6 7 7 7 8 8 9 8 8 7 7
11 12 12 12 12 12 14 14 13 12 13 15 15 15 15 14 13 12 12 18 22 24 15 17 24 25 21 10 7 6 6 6 6 6 6 6 6 7 7 8 8 7 7 8
12 12 12 12 12 12 13 13 13 13 14 12 14 14 12 11 12 14 14 15 20 22 14 17 22 21 13 8 7 6 5 5 5 6 6 6 7 7 7 7 7 7 7 7
12 11 11 11 11 11 11 11 11 12 12 13 13 12 12 11 12 13 12 13 16 20 15 11 11 12 9 8 7 6 5 4 5 5 6 6 7 7 7 7 8 7 7 7
10 10 9 10 10 10 10 10 12 12 12 13 15 14 14 13 13 13 14 13 13 13 11 10 9 8 7 6 5 4 3 3 4 5 6 6 6 6 7 8 7 7 7 7
Wind_Direction
253 267 263 243 247 226 216 225 240 262 266 275 285 298 302 304 309 313 315 318 318 312 307 299 283 260 242 237 223 212 213 218 223 220 216 212 209 206 202 200 201 200 202 209
268 260 249 252 251 248 244 240 243 261 271 275 290 305 301 303 306 309 313 314 313 311 308 302 289 273 256 243 226 211 218 224 224 217 213 211 209 204 200 200 199 196 201 207
268 278 308 265 239 237 227 216 214 243 258 298 319 315 309 307 308 305 306 305 306 305 300 296 291 278 267 253 228 216 224 228 222 216 215 212 207 203 201 199 195 197 201 206
276 347 242 246 240 225 234 248 233 248 273 295 293 292 286 276 285 304 306 306 305 302 301 298 294 288 277 262 235 226 230 231 223 215 216 210 205 206 204 198 196 199 201 207
216 252 270 285 269 220 216 269 244 238 269 289 300 314 295 264 284 293 295 294 293 294 295 297 297 295 287 274 253 240 238 235 225 216 214 209 208 207 202 196 197 198 199 204
197 225 255 250 255 169 146 280 263 211 283 305 338 335 303 311 317 311 307 305 305 306 305 304 304 304 290 279 264 253 247 240 228 217 214 213 212 206 199 195 198 196 202 204
219 236 262 258 271 131 205 252 280 276 294 298 283 262 277 298 303 300 301 303 304 306 304 301 304 304 289 282 272 267 259 245 230 220 218 217 211 202 192 192 191 195 201 205
201 220 256 243 163 197 236 283 300 299 294 291 284 283 291 300 303 307 308 308 311 311 308 306 306 300 291 287 284 279 260 242 231 221 216 214 205 198 191 189 189 194 199 207
205 227 250 215 220 254 280 288 291 290 290 292 294 297 304 305 306 307 306 309 311 310 308 308 305 293 289 291 294 284 264 249 236 220 211 204 200 197 192 191 193 194 197 208
255 260 262 269 271 273 273 275 283 284 288 295 296 300 305 304 305 307 306 309 310 312 312 311 311 303 287 291 293 281 268 257 236 219 211 204 202 200 198 196 196 195 197 205
261 271 280 260 259 269 281 287 290 297 299 300 302 303 302 303 302 303 303 304 305 304 302 303 306 305 300 295 290 280 270 258 239 223 213 208 208 209 207 207 200 196 200 198
265 267 272 281 282 285 286 288 294 300 307 311 305 298 300 299 297 298 301 301 302 300 301 304 306 304 303 299 287 276 274 259 240 225 215 211 212 220 224 218 216 212 207 200
260 273 275 284 290 288 282 286 293 293 293 298 300 292 293 293 292 296 297 299 299 299 300 301 302 301 302 299 287 271 265 261 242 228 218 213 211 213 217 220 220 217 214 209
264 278 281 281 281 287 278 284 292 293 287 281 282 288 292 292 294 298 299 299 298 298 298 298 299 298 300 297 287 276 267 262 250 231 220 215 214 213 211 205 204 209 214 212
264 260 265 279 281 283 296 303 312 308 304 301 296 296 297 299 300 299 299 299 298 297 297 299 300 299 301 299 290 281 273 265 252 235 222 217 214 212 210 209 207 198 188 205
264 276 273 261 252 277 298 305 305 300 299 297 299 298 296 294 294 295 296 296 298 300 300 300 298 298 300 297 292 285 274 270 260 241 226 218 213 210 208 207 205 198 195 193
248 253 243 251 264 279 285 284 283 288 291 292 293 294 297 298 298 298 298 297 293 292 293 293 292 294 295 290 287 285 278 273 265 250 226 217 211 208 206 204 202 201 199 194
210 210 206 225 257 278 287 287 286 287 288 288 292 295 296 298 299 299 300 302 301 298 294 290 289 294 291 289 285 279 273 266 253 243 228 216 211 206 203 203 202 199 190 195
127 232 263 270 270 274 279 284 286 285 287 291 293 294 294 293 292 293 297 300 301 300 298 293 302 305 297 294 296 276 267 262 255 244 229 222 216 205 201 201 200 195 189 188
298 290 285 284 283 280 282 285 288 290 291 292 294 296 296 294 294 296 298 295 289 285 288 294 298 296 295 296 299 280 265 257 250 241 226 216 209 201 199 199 196 193 192 191
292 290 288 287 288 285 284 288 292 293 294 294 293 293 293 294 295 295 297 298 294 290 294 299 302 298 299 299 300 283 265 254 245 234 222 213 207 200 195 194 194 193 192 190
290 289 288 288 290 293 292 291 290 291 294 294 292 291 293 295 296 295 286 285 291 298 303 299 298 299 306 305 294 280 266 252 240 227 217 209 203 197 192 191 191 191 189 186
286 286 287 288 290 292 293 292 289 290 290 291 293 293 292 292 295 296 298 295 297 302 306 298 301 306 309 308 292 279 264 248 233 220 211 204 198 193 190 189 188 186 182 181
287 287 286 287 290 292 292 291 290 289 287 287 286 285 287 293 294 288 286 296 303 303 303 300 306 310 313 308 292 281 264 245 227 212 202 195 189 185 185 183 181 179 178 176
281 282 284 287 290 289 288 291 293 292 290 290 288 287 285 283 286 294 295 297 300 304 302 304 308 311 311 299 293 282 267 244 220 199 190 185 182 180 180 177 176 175 176 177
278 282 282 279 278 282 286 289 290 291 294 296 297 296 295 294 291 293 296 296 296 300 303 301 302 304 301 296 293 285 269 250 225 197 182 178 176 174 173 172 168 171 171 169
279 280 282 284 282 278 279 282 286 289 292 293 296 298 298 299 299 298 299 300 301 301 300 299 299 299 299 296 290 280 253 210 185 174 171 171 169 169 168 164 164 162 162 162
Height
1531 1526 1528 1527 1524 1523 1524 1516 1513 1493 1486 1471 1464 1464 1462 1458 1454 1451 1448 1445 1442 1439 1437 1434 1431 1429 1426 1423 1420 1417 1413 1410 1407 1406 1405 1405 1406 1408 1411 1413 1416 1419 1421 1422
1529 1523 1523 1523 1516 1510 1506 1503 1498 1488 1478 1463 1464 1463 1459 1455 1452 1449 1446 1444 1441 1438 1435 1431 1428 1424 1421 1417 1414 1409 1405 1401 1399 1397 1395 1395 1396 1398 1401 1404 1407 1410 1412 1414
1529 1521 1520 1517 1500 1494 1493 1488 1486 1482 1470 1462 1463 1459 1456 1453 1450 1448 1445 1442 1439 1435 1431 1427 1423 1419 1414 1410 1406 1401 1397 1393 1390 1387 1385 1385 1386 1388 1390 1393 1397 1400 1403 1406
1532 1522 1521 1493 1482 1482 1481 1476 1474 1470 1466 1464 1462 1457 1454 1451 1449 1447 1444 1440 1435 1430 1426 1421 1417 1412 1408 1403 1398 1393 1389 1384 1380 1377 1375 1375 1376 1378 1381 1384 1387 1391 1394 1397
1533 1526 1506 1493 1479 1476 1477 1473 1466 1465 1463 1461 1458 1453 1450 1449 1447 1444 1440 1435 1430 1425 1420 1415 1410 1405 1400 1395 1390 1385 1380 1376 1372 1368 1366 1365 1365 1368 1371 1375 1378 1382 1386 1389
1529 1526 1508 1484 1472 1470 1473 1473 1462 1461 1460 1459 1455 1456 1447 1444 1441 1437 1433 1429 1424 1418 1414 1409 1404 1398 1393 1388 1382 1377 1372 1367 1363 1360 1357 1356 1356 1359 1362 1366 1370 1374 1377 1380
1522 1517 1493 1476 1471 1472 1478 1470 1461 1459 1457 1455 1453 1451 1444 1439 1435 1431 1427 1423 1418 1412 1407 1402 1397 1391 1385 1380 1374 1369 1364 1359 1355 1352 1349 1348 1348 1350 1353 1357 1361 1365 1369 1372
1515 1514 1494 1468 1470 1471 1466 1459 1457 1455 1453 1450 1446 1441 1437 1433 1429 1424 1420 1416 1411 1405 1400 1396 1391 1384 1377 1372 1367 1361 1355 1350 1346 1343 1341 1339 1340 1341 1344 1348 1352 1356 1360 1363
1493 1481 1468 1465 1464 1461 1460 1456 1453 1450 1448 1445 1440 1436 1432 1428 1424 1419 1415 1410 1404 1399 1393 1388 1384 1378 1370 1365 1359 1353 1347 1342 1338 1334 1332 1331 1331 1333 1336 1339 1343 1347 1351 1354
1479 1467 1463 1461 1459 1457 1456 1452 1448 1446 1443 1439 1435 1431 1427 1423 1419 1414 1409 1404 1398 1392 1386 1380 1376 1371 1364 1358 1352 1345 1340 1335 1330 1326 1324 1323 1323 1325 1327 1330 1334 1338 1342 1345
1469 1460 1457 1453 1453 1451 1449 1446 1443 1440 1437 1434 1430 1426 1423 1418 1414 1409 1403 1398 1392 1386 1379 1373 1368 1363 1357 1351 1344 1338 1333 1327 1323 1319 1316 1315 1315 1316 1318 1322 1326 1330 1334 1338
1456 1453 1453 1447 1448 1446 1442 1439 1436 1434 1431 1429 1426 1422 1418 1413 1409 1403 1397 1391 1385 1379 1373 1366 1360 1354 1350 1344 1337 1331 1325 1321 1316 1312 1310 1308 1308 1310 1312 1316 1321 1325 1329 1332
1448 1447 1445 1441 1440 1438 1436 1433 1431 1429 1427 1424 1421 1418 1413 1407 1402 1397 1391 1385 1378 1371 1365 1359 1352 1347 1342 1336 1330 1325 1319 1314 1309 1306 1303 1302 1302 1302 1305 1309 1313 1317 1321 1325
1445 1442 1437 1435 1434 1432 1431 1429 1427 1425 1423 1420 1416 1412 1407 1401 1395 1389 1383 1377 1371 1364 1358 1351 1345 1339 1334 1329 1323 1318 1312 1307 1303 1299 1297 1295 1295 1296 1298 1301 1305 1309 1314 1318
1437 1435 1432 1430 1429 1428 1427 1426 1423 1421 1418 1414 1410 1405 1400 1394 1388 1382 1376 1370 1363 1356 1350 1344 1337 1332 1327 1322 1316 1310 1305 1301 1296 1292 1290 1289 1289 1291 1293 1295 1299 1303 1308 1312
1431 1429 1427 1426 1426 1425 1424 1422 1420 1416 1412 1408 1403 1398 1393 1387 1381 1374 1368 1362 1355 1348 1342 1336 1330 1325 1320 1315 1309 1303 1299 1294 1290 1286 1283 1282 1283 1284 1286 1289 1293 1297 1301 1306
1425 1424 1423 1423 1423 1422 1421 1419 1416 1412 1407 1402 1397 1391 1385 1379 1372 1366 1360 1355 1349 1342 1336 1330 1323 1318 1313 1308 1302 1297 1292 1287 1284 1280 1277 1276 1277 1278 1280 1283 1287 1291 1296 1301
1421 1422 1422 1422 1421 1419 1417 1414 1410 1406 1401 1395 1389 1384 1378 1371 1365 1358 1352 1346 1340 1333 1329 1323 1317 1311 1306 1301 1296 1290 1285 1281 1277 1274 1271 1270 1271 1272 1275 1278 1282 1287 1291 1296
1421 1421 1420 1419 1418 1415 1412 1408 1403 1399 1394 1388 1382 1376 1370 1365 1358 1352 1345 1339 1332 1324 1319 1315 1310 1304 1299 1294 1289 1283 1278 1274 1270 1267 1265 1265 1266 1267 1270 1273 1277 1282 1287 1291
1419 1419 1417 1415 1413 1410 1406 1401 1396 1391 1386 1381 1374 1368 1362 1357 1351 1344 1338 1332 1326 1320 1313 1307 1302 1297 1291 1286 1281 1276 1271 1267 1264 1261 1260 1260 1261 1263 1265 1269 1273 1277 1282 1287
1416 1415 1412 1409 1406 1403 1399 1394 1389 1383 1378 1373 1367 1360 1354 1349 1344 1338 1330 1323 1318 1314 1307 1301 1295 1290 1284 1279 1274 1269 1265 1261 1258 1256 1255 1255 1257 1259 1262 1265 1269 1273 1278 1283
1412 1410 1407 1403 1399 1395 1391 1387 1381 1375 1370 1365 1359 1353 1347 1341 1335 1330 1324 1318 1311 1306 1300 1294 1288 1283 1278 1273 1267 1263 1259 1256 1253 1251 1251 1251 1253 1255 1258 1262 1266 1270 1275 1279
1406 1403 1400 1396 1391 1386 1381 1378 1373 1368 1362 1357 1351 1346 1340 1334 1329 1322 1315 1310 1305 1299 1293 1287 1282 1277 1272 1266 1261 1257 1253 1250 1248 1247 1247 1248 1250 1252 1255 1259 1263 1267 1272 1276
1399 1395 1392 1388 1383 1377 1372 1368 1364 1359 1354 1349 1344 1338 1333 1326 1320 1316 1310 1303 1298 1292 1286 1281 1276 1270 1265 1260 1255 1251 1248 1245 1243 1243 1243 1245 1247 1250 1253 1256 1260 1265 1269 1274
1391 1387 1383 1378 1374 1369 1364 1359 1355 1350 1345 1339 1334 1330 1325 1320 1314 1307 1302 1296 1291 1285 1279 1274 1270 1265 1259 1254 1250 1246 1243 1241 1240 1239 1240 1242 1244 1247 1250 1254 1258 1263 1267 1271
1381 1377 1374 1370 1366 1361 1357 1352 1346 1341 1336 1330 1325 1321 1316 1312 1306 1301 1295 1290 1284 1279 1274 1269 1264 1259 1254 1250 1246 1242 1239 1237 1237 1237 1238 1240 1242 1245 1249 1253 1257 1261 1266 1270
1372 1369 1365 1361 1358 1354 1349 1344 1339 1334 1329 1323 1317 1312 1308 1303 1299 1294 1289 1283 1278 1273 1268 1264 1259 1254 1250 1245 1242 1239 1236 1235 1234 1235 1236 1238 1241 1244 1248 1252 1256 1260 1264 1268